EW4993 Weather Reports


Display with metric or nautical units.
time (UTC)temp
F
wind
direction
speed
MPH
gust
MPH
rain 1hr
in
rain 24hr
in
rain mn
in
humidity
%
barometer
mb
20240228061547 70 212 0.0 0.0 0.00 0.00 0.00 87 981.8
20240228060044 70 212 0.0 0.0 0.00 0.00 0.00 87 982.0
20240228054550 70 217 0.0 0.0 0.00 0.00 0.00 86 982.2
20240228053038 71 204 0.0 0.0 0.00 0.00 0.00 85 982.2
20240228051540 71 203 0.0 0.0 0.00 0.00 0.00 85 982.1
20240228050037 71 188 0.0 0.0 0.00 0.00 0.00 84 982.2
20240228044536 71 211 0.0 0.0 0.00 0.00 0.00 83 982.4
20240228043036 72 213 0.0 0.0 0.00 0.00 0.00 82 982.1
20240228041536 72 192 0.0 0.0 0.00 0.00 0.00 82 981.9
20240228040039 72 198 0.0 0.0 0.00 0.00 0.00 82 981.8
20240228034517 72 201 0.0 0.0 0.00 0.00 0.00 82 981.8
20240228033019 72 194 0.0 0.0 0.00 0.00 0.00 81 981.7
20240228031506 72 195 0.0 0.0 0.00 0.00 0.00 81 981.4
20240228030006 72 191 0.0 0.0 0.00 0.00 0.00 81 981.5
20240228024505 71 207 0.0 0.0 0.00 0.00 0.00 81 981.6
20240228023005 71 213 0.0 0.0 0.00 0.00 0.00 80 981.4
20240228021503 72 200 0.0 0.0 0.00 0.00 0.00 80 981.3
20240228020007 72 187 0.0 0.0 0.00 0.00 0.00 79 980.9
20240228014502 72 188 0.0 0.0 0.00 0.00 0.00 78 980.9
20240228013004 73 190 0.0 0.0 0.00 0.00 0.00 78 980.7
20240228011601 73 200 0.0 0.0 0.00 0.00 0.00 77 980.7
20240228010104 74 211 0.0 0.0 0.00 0.00 0.00 76 981.2
20240228004602 74 211 0.0 0.0 0.00 0.00 0.00 76 981.0
20240228003039 75 202 0.0 0.0 0.00 0.00 0.00 75 981.1
20240228001544 75 220 0.0 0.0 0.00 0.00 0.00 75 981.1
20240228000021 75 220 0.0 0.0 0.00 0.00 0.00 74 980.8
20240227234521 76 176 0.0 0.0 0.00 0.00 0.00 73 979.9
20240227233003 76 198 0.0 0.0 0.00 0.00 0.00 72 980.4
20240227231503 77 209 0.0 0.0 0.00 0.00 0.00 72 980.9
20240227230053 77 211 0.0 0.0 0.00 0.00 0.00 71 980.8
20240227224548 78 207 0.0 0.0 0.00 0.00 0.00 70 980.3
20240227223026 78 216 0.0 0.0 0.00 0.00 0.00 69 980.1
20240227221530 78 217 0.0 0.0 0.00 0.00 0.00 68 980.0
20240227220030 78 229 0.0 0.0 0.00 0.00 0.00 69 980.1
20240227214615 78 216 0.0 0.0 0.00 0.00 0.00 70 980.1
20240227213011 78 221 0.0 0.0 0.00 0.00 0.00 69 980.0
20240227211508 78 213 0.0 0.0 0.00 0.00 0.00 70 980.1
20240227210007 78 217 0.0 0.0 0.00 0.00 0.00 71 980.2
20240227204505 78 230 0.0 1.0 0.00 0.00 0.00 71 980.4
20240227203003 78 211 0.0 0.0 0.00 0.00 0.00 72 980.6
20240227201503 77 228 0.0 0.0 0.00 0.00 0.00 72 980.5
20240227200042 77 220 0.0 1.0 0.00 0.00 0.00 73 980.9
20240227194539 76 214 0.0 0.0 0.00 0.00 0.00 73 980.9
20240227193019 76 203 0.0 0.0 0.00 0.00 0.00 75 981.2
20240227191520 76 212 0.0 0.0 0.00 0.00 0.00 73 981.6
20240227190058 76 226 0.0 0.0 0.00 0.00 0.00 74 982.0
20240227184554 75 228 0.0 1.0 0.00 0.00 0.00 77 981.8
20240227183035 75 231 0.0 0.0 0.00 0.00 0.00 78 982.2
20240227181547 73 224 0.0 1.0 0.00 0.00 0.00 80 982.5
20240227180012 73 203 0.0 0.0 0.00 0.00 0.00 81 982.7
20240227174509 72 224 0.0 0.0 0.00 0.00 0.00 83 983.3
20240227173050 71 251 0.0 0.0 0.00 0.00 0.00 84 983.1
20240227171602 71 223 0.0 0.0 0.00 0.00 0.00 85 983.2
20240227170029 70 225 0.0 0.0 0.00 0.00 0.00 85 983.6
20240227164555 70 234 0.0 0.0 0.00 0.00 0.00 85 983.8
20240227163009 70 221 0.0 0.0 0.00 0.00 0.00 86 983.2
20240227161507 69 236 0.0 0.0 0.00 0.00 0.00 87 983.4
20240227160047 69 233 0.0 0.0 0.00 0.00 0.00 88 983.6
20240227154544 69 241 0.0 0.0 0.00 0.00 0.00 88 983.6
20240227153028 68 227 0.0 0.0 0.00 0.00 0.00 89 983.3
20240227151524 68 238 0.0 0.0 0.00 0.00 0.00 90 983.2
20240227150003 67 226 0.0 0.0 0.00 0.00 0.00 90 982.9
20240227144503 67 211 0.0 0.0 0.00 0.00 0.00 90 983.0
20240227143106 67 202 0.0 0.0 0.00 0.00 0.00 91 983.0
20240227141543 67 208 0.0 0.0 0.00 0.00 0.00 91 982.9
20240227140035 67 223 0.0 0.0 0.00 0.00 0.00 91 982.6
20240227134532 67 215 0.0 0.0 0.00 0.00 0.00 91 982.8
20240227133020 66 215 0.0 0.0 0.00 0.00 0.00 91 982.6
20240227131513 66 209 0.0 0.0 0.00 0.00 0.00 91 982.6
20240227130030 67 218 0.0 0.0 0.00 0.00 0.00 91 982.3
20240227124517 67 223 0.0 10.0 0.00 0.00 0.00 91 982.3
20240227123010 67 224 0.0 0.0 0.00 0.00 0.00 91 982.2
20240227121510 67 214 0.0 0.0 0.00 0.00 0.00 91 982.0
20240227120022 67 219 0.0 0.0 0.00 0.00 0.00 91 982.0
20240227114511 67 207 0.0 0.0 0.00 0.00 0.00 91 982.0
20240227113005 67 222 0.0 0.0 0.00 0.00 0.00 91 982.1
20240227111504 67 221 0.0 0.0 0.00 0.00 0.00 91 982.0
20240227110047 67 214 0.0 0.0 0.00 0.00 0.00 91 982.1
20240227104546 67 231 0.0 11.0 0.00 0.00 0.00 91 982.3
20240227103030 67 229 0.0 0.0 0.00 0.00 0.00 90 982.3
20240227101530 67 210 9.0 14.0 0.00 0.00 0.00 90 982.1
20240227100008 67 215 3.0 16.0 0.00 0.00 0.00 90 981.8
20240227094506 67 238 0.0 0.0 0.00 0.00 0.00 90 982.3
20240227093046 67 221 0.0 12.0 0.00 0.00 0.00 90 982.4
20240227091544 67 220 0.0 1.0 0.00 0.00 0.00 90 982.6
20240227090025 67 208 0.0 0.0 0.00 0.00 0.00 90 982.9
20240227084532 67 211 0.0 0.0 0.00 0.00 0.00 91 983.2
20240227083005 67 213 0.0 0.0 0.00 0.00 0.00 91 983.2
20240227081509 66 215 0.0 0.0 0.00 0.00 0.00 91 983.2
20240227080049 66 214 0.0 1.0 0.00 0.00 0.00 91 983.2
20240227074547 66 215 0.0 3.0 0.00 0.00 0.00 91 983.0
20240227073025 66 219 0.0 3.0 0.00 0.00 0.00 91 983.1
20240227071523 66 216 0.0 4.0 0.00 0.00 0.00 91 983.6
20240227070006 66 227 0.0 2.0 0.00 0.00 0.00 91 983.8
20240227064504 66 219 0.0 12.0 0.00 0.00 0.00 91 983.7
20240227063054 66 216 0.0 0.0 0.00 0.00 0.00 91 983.9